timestamp,surface_pressure_avg,surface_temp_avg,battery_voltage,lat,long
2019-08-10 00:00:00+00:00,227.4748,18.9,12.89,47.84626,-54.09684
2019-08-10 00:10:00+00:00,230.4131,18.9,12.81,47.84626,-54.09684
2019-08-10 00:20:00+00:00,229.0581,18.9,12.97,47.84626,-54.09684
2019-08-10 00:30:00+00:00,224.1514,18.9,12.97,47.84626,-54.09684
2019-08-10 00:40:00+00:00,221.2931,18.9,12.97,47.84626,-54.09684
2019-08-10 00:50:00+00:00,221.4098,18.9,12.97,47.84626,-54.09684
2019-08-10 01:00:00+00:00,221.4231,18.9,12.89,47.84626,-54.09684
2019-08-10 01:10:00+00:00,222.7064,18.9,12.81,47.84626,-54.09684
2019-08-10 01:20:00+00:00,222.6531,18.89,12.89,47.84626,-54.09684
2019-08-10 01:30:00+00:00,221.7014,18.85,12.97,47.84626,-54.09684
2019-08-10 01:40:00+00:00,224.5064,18.87,12.97,47.84626,-54.09684
2019-08-10 01:50:00+00:00,224.8415,18.8,12.97,47.84626,-54.09684
2019-08-10 02:00:00+00:00,223.1514,18.76,12.89,47.84626,-54.09684
2019-08-10 02:10:00+00:00,226.7814,18.7,12.81,47.84626,-54.09684
2019-08-10 02:20:00+00:00,230.1797,18.7,12.89,47.84626,-54.09684
2019-08-10 02:30:00+00:00,228.5381,18.73,12.89,47.84626,-54.09684
2019-08-10 02:40:00+00:00,226.4315,18.79,12.97,47.84626,-54.09684
2019-08-10 02:50:00+00:00,228.7914,18.8,12.97,47.84626,-54.09684
2019-08-10 03:00:00+00:00,230.0231,18.8,12.89,47.84626,-54.09684
2019-08-10 03:10:00+00:00,228.8297,18.8,12.81,47.84626,-54.09684
2019-08-10 03:20:00+00:00,230.6181,18.79,12.89,47.84626,-54.09684
2019-08-10 03:30:00+00:00,235.6998,18.77,12.89,47.84626,-54.09684
2019-08-10 03:40:00+00:00,238.1464,18.73,12.89,47.84626,-54.09684
2019-08-10 03:50:00+00:00,238.9115,18.71,12.89,47.84626,-54.09684
2019-08-10 04:00:00+00:00,242.8398,18.7,12.89,47.84626,-54.09684
2019-08-10 04:10:00+00:00,247.3464,18.7,12.81,47.84626,-54.09684
2019-08-10 04:20:00+00:00,252.6531,18.7,12.89,47.84626,-54.09684
2019-08-10 04:30:00+00:00,257.3831,18.7,12.89,47.84626,-54.09684
2019-08-10 04:40:00+00:00,263.2081,18.7,12.89,47.84626,-54.09684
2019-08-10 04:50:00+00:00,269.2297,18.7,12.89,47.84626,-54.09684
2019-08-10 05:00:00+00:00,275.3231,18.7,12.81,47.84626,-54.09684
2019-08-10 05:10:00+00:00,280.8981,18.7,12.81,47.84626,-54.09684
2019-08-10 05:20:00+00:00,283.3947,18.7,12.81,47.84626,-54.09684
2019-08-10 05:30:00+00:00,285.438,18.7,12.89,47.84626,-54.09684
2019-08-10 05:40:00+00:00,290.558,18.7,12.89,47.84626,-54.09684
2019-08-10 05:50:00+00:00,296.0181,18.65,12.89,47.84626,-54.09684
2019-08-10 06:00:00+00:00,293.8597,18.69,12.81,47.84626,-54.09684
2019-08-10 06:10:00+00:00,294.228,18.7,12.73,47.84626,-54.09684
2019-08-10 06:20:00+00:00,297.6431,18.7,12.81,47.84626,-54.09684
2019-08-10 06:30:00+00:00,301.0947,18.7,12.81,47.84626,-54.09684
2019-08-10 06:40:00+00:00,303.1529,18.69,12.89,47.84626,-54.09684
2019-08-10 06:50:00+00:00,305.6763,18.7,12.89,47.84626,-54.09684
2019-08-10 07:00:00+00:00,306.1497,18.6,12.81,47.84626,-54.09684
2019-08-10 07:10:00+00:00,307.0064,18.6,12.73,47.84626,-54.09684
2019-08-10 07:20:00+00:00,309.1046,18.6,12.81,47.84626,-54.09684
2019-08-10 07:30:00+00:00,310.7797,18.6,12.81,47.84626,-54.09684
2019-08-10 07:40:00+00:00,307.1164,18.6,12.81,47.84626,-54.09684
2019-08-10 07:50:00+00:00,309.6313,18.6,12.89,47.84626,-54.09684
2019-08-10 08:00:00+00:00,314.8664,18.59,12.81,47.84626,-54.09684
2019-08-10 08:10:00+00:00,316.7163,18.6,12.73,47.84626,-54.09684
2019-08-10 08:20:00+00:00,314.2596,18.6,12.81,47.84626,-54.09684
2019-08-10 08:30:00+00:00,313.9264,18.6,12.81,47.84626,-54.09684
2019-08-10 08:40:00+00:00,314.0147,18.6,12.81,47.84626,-54.09684
2019-08-10 08:50:00+00:00,309.3914,18.6,12.89,47.84626,-54.09684
2019-08-10 09:00:00+00:00,306.1713,18.6,12.81,47.84626,-54.09684
2019-08-10 09:10:00+00:00,302.9764,18.6,12.73,47.84626,-54.09684
2019-08-10 09:20:00+00:00,298.568,18.59,12.81,47.84626,-54.09684
2019-08-10 09:30:00+00:00,292.753,18.59,12.81,47.84626,-54.09684
2019-08-10 09:40:00+00:00,286.6081,18.6,12.89,47.84626,-54.09684
2019-08-10 09:50:00+00:00,283.4497,18.6,12.89,47.84626,-54.09684
2019-08-10 10:00:00+00:00,278.2964,18.6,12.89,47.84626,-54.09684
2019-08-10 10:10:00+00:00,272.0214,18.6,12.81,47.84626,-54.09684
2019-08-10 10:20:00+00:00,266.4797,18.6,12.89,47.84626,-54.09684
2019-08-10 10:30:00+00:00,259.5064,18.63,12.89,47.84626,-54.09684
2019-08-10 10:40:00+00:00,252.2764,18.65,12.97,47.84626,-54.09684
2019-08-10 10:50:00+00:00,245.5147,18.64,13.05,47.84626,-54.09684
2019-08-10 11:00:00+00:00,241.0864,18.64,13.05,47.84626,-54.09684
2019-08-10 11:10:00+00:00,234.3415,18.65,12.97,47.84626,-54.09684
2019-08-10 11:20:00+00:00,230.243,18.65,13.13,47.84626,-54.09684
2019-08-10 11:30:00+00:00,230.9998,18.6,13.21,47.84626,-54.09684
2019-08-10 11:40:00+00:00,226.6131,18.6,13.29,47.84626,-54.09684
2019-08-10 11:50:00+00:00,223.6947,18.6,13.29,47.84626,-54.09684
2019-08-10 12:00:00+00:00,225.2731,18.6,13.29,47.84626,-54.09684
2019-08-10 12:10:00+00:00,224.7314,18.6,13.21,47.84626,-54.09684
2019-08-10 12:20:00+00:00,219.9548,18.6,13.29,47.84626,-54.09684
2019-08-10 12:30:00+00:00,217.1997,18.6,13.37,47.84626,-54.09684
2019-08-10 12:40:00+00:00,218.8698,18.6,13.37,47.84626,-54.09684
2019-08-10 12:50:00+00:00,218.6014,18.6,13.44,47.84626,-54.09684
2019-08-10 13:00:00+00:00,217.9148,18.6,13.37,47.84626,-54.09684
2019-08-10 13:10:00+00:00,219.7298,18.63,13.37,47.84626,-54.09684
2019-08-10 13:20:00+00:00,220.7881,18.69,13.44,47.84626,-54.09684
2019-08-10 13:30:00+00:00,218.7464,18.7,13.44,47.84626,-54.09684
2019-08-10 13:40:00+00:00,220.0415,18.7,13.53,47.84626,-54.09684
2019-08-10 13:50:00+00:00,221.6881,18.71,13.53,47.84626,-54.09684
2019-08-10 14:00:00+00:00,219.9381,18.78,13.44,47.84626,-54.09684
2019-08-10 14:10:00+00:00,216.6647,18.8,13.37,47.84626,-54.09684
2019-08-10 14:20:00+00:00,218.6231,18.8,13.53,47.84626,-54.09684
2019-08-10 14:30:00+00:00,221.1314,18.8,13.6,47.84626,-54.09684
2019-08-10 14:40:00+00:00,221.4482,18.8,13.6,47.84626,-54.09684
2019-08-10 14:50:00+00:00,226.3514,18.8,13.68,47.84626,-54.09684
2019-08-10 15:00:00+00:00,231.9714,18.8,13.68,47.84626,-54.09684
2019-08-10 15:10:00+00:00,235.3164,18.87,13.68,47.84626,-54.09684
2019-08-10 15:20:00+00:00,238.2731,18.9,13.76,47.84626,-54.09684
2019-08-10 15:30:00+00:00,239.9414,18.9,13.84,47.84626,-54.09684
2019-08-10 15:40:00+00:00,241.1947,18.9,13.92,47.84626,-54.09684
2019-08-10 15:50:00+00:00,243.2564,18.96,14.0,47.84626,-54.09684
2019-08-10 16:00:00+00:00,248.3564,19.0,14.0,47.84626,-54.09684
2019-08-10 16:10:00+00:00,252.6431,19.0,13.92,47.84626,-54.09684
2019-08-10 16:20:00+00:00,255.3881,19.07,14.0,47.84626,-54.09684
2019-08-10 16:30:00+00:00,259.0397,19.0,14.16,47.84626,-54.09684
2019-08-10 16:40:00+00:00,267.0314,18.89,14.08,47.84626,-54.09684
2019-08-10 16:50:00+00:00,271.3614,19.09,14.08,47.84626,-54.09684
2019-08-10 17:00:00+00:00,275.158,19.1,14.0,47.84626,-54.09684
2019-08-10 17:10:00+00:00,284.878,19.05,13.92,47.84626,-54.09684
2019-08-10 17:20:00+00:00,293.9646,19.01,14.08,47.84626,-54.09684
2019-08-10 17:30:00+00:00,296.2246,18.96,14.16,47.84626,-54.09684
2019-08-10 17:40:00+00:00,301.4631,18.58,14.24,47.84626,-54.09684
2019-08-10 17:50:00+00:00,313.6213,18.3,14.24,47.84626,-54.09684
2019-08-10 18:00:00+00:00,316.9197,18.3,14.16,47.84626,-54.09684
2019-08-10 18:10:00+00:00,312.2062,18.39,14.08,47.84626,-54.09684
2019-08-10 18:20:00+00:00,320.793,18.29,14.16,47.84626,-54.09684
2019-08-10 18:30:00+00:00,330.1913,18.19,14.16,47.84626,-54.09684
2019-08-10 18:40:00+00:00,328.7646,18.61,14.16,47.84626,-54.09684
2019-08-10 18:50:00+00:00,329.0214,18.3,14.16,47.84626,-54.09684
2019-08-10 19:00:00+00:00,333.7247,18.1,14.08,47.84626,-54.09684
2019-08-10 19:10:00+00:00,338.9464,18.46,14.0,47.84626,-54.09684
2019-08-10 19:20:00+00:00,338.7881,18.4,14.0,47.84626,-54.09684
2019-08-10 19:30:00+00:00,338.1664,18.1,14.0,47.84626,-54.09684
2019-08-10 19:40:00+00:00,343.5047,18.24,14.08,47.84626,-54.09684
2019-08-10 19:50:00+00:00,348.3879,18.6,14.0,47.84626,-54.09684
2019-08-10 20:00:00+00:00,345.4113,18.4,13.92,47.84626,-54.09684
2019-08-10 20:10:00+00:00,344.9379,18.5,13.84,47.84626,-54.09684
2019-08-10 20:20:00+00:00,349.2097,18.6,13.84,47.84626,-54.09684
2019-08-10 20:30:00+00:00,352.423,18.7,13.84,47.84626,-54.09684
2019-08-10 20:40:00+00:00,349.2113,18.7,13.84,47.84626,-54.09684
2019-08-10 20:50:00+00:00,347.2813,18.8,13.76,47.84626,-54.09684
2019-08-10 21:00:00+00:00,347.9497,18.88,13.68,47.84626,-54.09684
2019-08-10 21:10:00+00:00,346.5163,18.87,13.53,47.84626,-54.09684
2019-08-10 21:20:00+00:00,338.6562,18.9,13.53,47.84626,-54.09684
2019-08-10 21:30:00+00:00,329.738,18.98,13.53,47.84626,-54.09684
2019-08-10 21:40:00+00:00,325.128,19.0,13.44,47.84626,-54.09684
2019-08-10 21:50:00+00:00,321.9413,19.0,13.44,47.84626,-54.09684
2019-08-10 22:00:00+00:00,316.273,19.0,13.37,47.84626,-54.09684
2019-08-10 22:10:00+00:00,312.8262,18.9,13.21,47.84626,-54.09684
2019-08-10 22:20:00+00:00,308.0814,18.9,13.21,47.84626,-54.09684
2019-08-10 22:30:00+00:00,303.2397,18.87,13.21,47.84626,-54.09684
2019-08-10 22:40:00+00:00,296.2081,18.8,13.13,47.84626,-54.09684
2019-08-10 22:50:00+00:00,291.2531,18.6,13.13,47.84626,-54.09684
2019-08-10 23:00:00+00:00,285.1647,18.65,13.05,47.84626,-54.09684
2019-08-10 23:10:00+00:00,277.5331,18.8,12.97,47.84626,-54.09684
2019-08-10 23:20:00+00:00,270.1998,18.86,12.97,47.84626,-54.09684
2019-08-10 23:30:00+00:00,263.5231,18.8,12.97,47.84626,-54.09684
2019-08-10 23:40:00+00:00,259.9181,18.84,13.05,47.84626,-54.09684
2019-08-10 23:50:00+00:00,256.8714,18.9,13.05,47.84626,-54.09684
